Alamosa, CO

1:53 AM MDT on September 26, 2017 (GMT -0600)
San Luis Valley Regional / Bergman Field

Weather History for KALS - January, 2013

Change the Weather History Date:

Thursday, January 10, 2013

  Actual Average Record
Temperature  
Mean Temperature 2 °F 16 °F  
Max Temperature 24 °F 34 °F 52 °F (2005)
Min Temperature -21 °F -2 °F -26 °F (1964)
Degree Days  
Heating Degree Days 63 49  
Month to date heating degree days 689 490  
Since 1 July heating degree days 4383 4127  
Cooling Degree Days 0 0  
Month to date cooling degree days 0 0  
Year to date cooling degree days 0 0  
Moisture  
Dew Point -8 °F    
Average Humidity 72    
Maximum Humidity 91    
Minimum Humidity 52    
Precipitation  
Precipitation T in 0.01 in 0.14 in (2002)
Month to date precipitation 0.01 0.08  
Year to date precipitation 0.01 0.08  
Snow  
Snow T in 0.20 in 2.10 in (2002)
Month to date snowfall 0.4 1.2  
Since 1 July snowfall 12.5 11.5  
Snow Depth 5.00 in    
Sea Level Pressure  
Sea Level Pressure 30.07 in    
Wind  
Wind Speed 6 mph (West)    
Max Wind Speed 10 mph    
Max Gust Speed 14 mph    
Visibility 6 miles    
Events Fog    
T = Trace of Precipitation, MM = Missing Value Source: NWS Daily Summary

Daily Weather History Graph

Daily Weather History Graph

Search for Another Location

Airport or City:

Trip Planner

Search our weather history database for the weather conditions in past years. The results will help you decide how hot, cold, wet, or windy it might be!

Date:

Astronomy

Jan. 10, 2013 Rise Set
Actual Time 7:17 AM MST 5:04 PM MST
Civil Twilight 6:49 AM MST 5:33 PM MST
Nautical Twilight 6:16 AM MST 6:05 PM MST
Astronomical Twilight 5:45 AM MST 6:37 PM MST
Moon 6:00 AM MST (1/10) 4:15 PM MST (1/10)
Length of Visible Light 10h 44m
Length of Day
9h 46m
Waning Crescent, 2% of the Moon is Illuminated
Jan 10
Waning Crescent
Jan 11
New
Jan 18
First Quarter
Jan 26
Full
Feb 3
Last Quarter

Hourly Weather History & Observations

Time (MST) Temp. Windchill Dew Point Humidity Pressure Visibility Wind Dir Wind Speed Gust Speed Precip Events Conditions
12:02 AM -11.2 °F - -14.8 °F 84% 30.20 in 3.0 mi Calm Calm - N/A   Overcast
12:33 AM -14.8 °F - -18.4 °F 84% 30.20 in 1.5 mi Calm Calm - N/A   Haze
12:41 AM -14.8 °F - -18.4 °F 84% 30.19 in 0.2 mi Calm Calm - N/A Fog Light Freezing Fog
12:52 AM -15.0 °F - -17.0 °F 91% 30.55 in 0.2 mi Calm Calm - N/A Fog Light Freezing Fog
1:10 AM -16.6 °F -29.3 °F -20.2 °F 84% 30.17 in 2.0 mi South 4.6 mph - N/A   Mostly Cloudy
1:17 AM -18.4 °F -28.9 °F -22.0 °F 84% 30.17 in 6.0 mi South 3.5 mph - N/A   Mostly Cloudy
1:36 AM -16.6 °F -26.8 °F -20.2 °F 84% 30.16 in 3.0 mi West 3.5 mph - N/A   Partly Cloudy
1:46 AM -14.8 °F -24.8 °F -18.4 °F 84% 30.16 in 1.8 mi WNW 3.5 mph - N/A   Mostly Cloudy
1:52 AM -14.1 °F -28.3 °F -18.9 °F 79% 30.50 in 1.2 mi WNW 5.8 mph - N/A   Haze
1:58 AM -13.0 °F -27.0 °F -16.6 °F 84% 30.15 in 3.0 mi NW 5.8 mph - N/A   Mostly Cloudy
2:10 AM -13.0 °F -25.1 °F -18.4 °F 77% 30.15 in 4.0 mi NW 4.6 mph - N/A   Haze
2:24 AM -13.0 °F - -16.6 °F 84% 30.15 in 6.0 mi Calm Calm - N/A   Mostly Cloudy
2:52 AM -15.0 °F -27.4 °F -18.9 °F 82% 30.45 in 7.0 mi NW 4.6 mph - N/A   Overcast
3:52 AM -18.0 °F -28.5 °F -23.1 °F 78% 30.41 in 1.5 mi ESE 3.5 mph - N/A   Haze
4:01 AM -18.4 °F - -20.2 °F 91% 30.10 in 0.5 mi Calm Calm - N/A Fog Light Freezing Fog
4:50 AM -18.4 °F - -23.8 °F 76% 30.09 in - North - - N/A   Unknown
4:52 AM -18.4 °F - -23.8 °F 76% 30.08 in - North - - N/A   Unknown
5:52 AM - - - N/A% 30.07 in - North - - N/A   Unknown
6:52 AM - - - N/A% 30.06 in - North - - N/A   Unknown
8:52 AM - - - N/A% 30.03 in - North - - N/A   Unknown
9:52 AM - - - N/A% 30.03 in - North - - N/A   Unknown
10:52 AM - - - N/A% 30.00 in - North - - N/A   Unknown
11:52 AM 8.6 °F - - N/A% 29.96 in - North - - N/A   Unknown
12:00 PM 8.6 °F - 1.4 °F 73% 29.95 in 1.5 mi Calm Calm - N/A   Haze
12:15 PM 10.4 °F - 3.2 °F 73% 29.94 in 8.0 mi Calm Calm - N/A   Unknown
12:52 PM 12.2 °F 6.1 °F 3.2 °F 67% 29.91 in - ESE 3.5 mph - N/A   Clear
1:26 PM 14.0 °F - 6.8 °F 73% 29.89 in 1.2 mi Calm Calm - N/A   Haze
1:34 PM 15.8 °F - 6.8 °F 68% 29.88 in 10.0 mi Calm Calm - N/A   Clear
1:52 PM 17.1 °F 11.7 °F 6.1 °F 62% 30.19 in 1.2 mi West 3.5 mph - N/A   Haze
2:01 PM 15.8 °F - 6.8 °F 68% 29.87 in 10.0 mi Calm Calm - N/A   Clear
2:52 PM 21.0 °F - 7.0 °F 55% 30.15 in 1.2 mi Calm Calm - N/A   Haze
3:15 PM 19.4 °F 11.5 °F 8.6 °F 63% 29.84 in - North 5.8 mph - N/A   Unknown
3:52 PM 18.0 °F 9.8 °F 7.0 °F 62% 30.16 in 10.0 mi NNW 5.8 mph - N/A   Clear
4:52 PM 12.0 °F - 3.9 °F 70% 30.20 in 10.0 mi Calm Calm - N/A   Clear
5:52 PM 3.9 °F - -0.9 °F 80% 29.80 in 10.0 mi Calm Calm - N/A   Clear
6:52 PM -0.9 °F -11.0 °F -4.0 °F 87% 29.79 in 9.0 mi NNW 4.6 mph - N/A   Clear
7:52 PM 1.0 °F -6.7 °F -2.9 °F 83% 29.79 in 10.0 mi SSW 3.5 mph - N/A   Clear
8:52 PM 1.9 °F - -2.0 °F 83% 29.77 in 9.0 mi Calm Calm - N/A   Clear
9:52 PM 1.9 °F -7.6 °F -2.0 °F 83% 29.75 in 9.0 mi SW 4.6 mph - N/A   Clear
10:52 PM 3.2 °F -12.2 °F -0.4 °F 85% 29.71 in 10.0 mi SE 10.4 mph - N/A   Mostly Cloudy
11:52 PM 14.0 °F 5.1 °F 9.0 °F 80% 29.67 in 10.0 mi SSE 5.8 mph - N/A   Overcast